Temp
9 9 9 9 9 8 8 8 8 8 8 9 9 9 9 10 11 11 13 12 11 10 11 12 13 13 13 13 14 14 11 12 14 16 17 19 19 20 22 19 19 20 19 23 24
9 9 9 8 8 8 8 8 8 8 8 8 8 8 9 10 10 13 12 12 11 10 12 12 13 13 12 13 14 12 11 12 15 16 16 17 17 18 19 20 18 18 21 19 23
8 8 8 8 8 8 8 8 8 8 8 8 8 8 8 10 12 13 12 10 10 10 11 11 12 12 11 12 13 13 11 13 14 15 15 16 16 17 18 16 18 17 18 17 13
8 8 8 8 8 8 8 8 8 8 8 8 8 8 9 10 11 11 11 10 10 10 10 11 12 11 11 11 13 12 13 14 14 15 14 14 15 15 16 17 18 17 17 16 15
8 8 8 8 8 8 8 8 8 8 8 8 8 8 9 11 12 11 11 10 10 10 10 11 11 11 10 12 12 12 12 13 14 14 14 14 14 14 14 15 17 17 17 16 15
8 8 8 8 7 7 7 8 8 8 8 8 8 8 9 9 11 11 10 10 10 10 10 11 11 11 10 10 10 11 11 12 12 13 13 13 13 14 14 15 15 16 17 15 14
8 8 8 8 8 7 7 7 8 8 8 8 8 9 9 10 11 11 10 10 10 10 11 11 11 10 10 9 11 10 10 11 11 12 12 13 12 13 15 15 15 15 16 16 14
9 10 9 7 8 7 7 7 7 7 8 8 8 9 9 11 11 10 10 10 10 10 10 10 10 9 9 9 9 9 9 8 11 12 12 12 9 12 14 14 14 14 15 15 13
8 8 9 7 8 8 8 8 8 7 7 8 8 9 9 10 10 11 10 11 11 11 10 10 9 8 7 7 7 8 7 9 11 13 13 13 10 13 14 14 14 15 15 15 12
8 8 9 8 8 8 8 9 8 7 8 9 9 8 10 11 11 10 10 10 10 11 10 9 8 6 7 7 7 8 9 11 11 13 13 13 13 13 14 14 14 14 15 14 12
7 8 7 8 8 8 9 9 9 8 10 9 10 10 12 11 10 9 10 10 10 10 9 9 7 7 8 8 8 9 9 9 10 12 12 12 12 12 12 14 14 14 14 12 11
7 8 8 8 8 8 8 11 10 9 8 11 11 12 12 11 10 11 10 9 9 9 10 9 8 10 11 11 9 9 9 9 11 12 12 11 10 11 11 14 14 14 13 12 12
7 8 8 8 8 8 10 10 8 9 9 12 12 11 11 10 11 12 10 10 8 8 9 9 11 14 13 11 9 9 8 9 10 11 10 8 9 10 11 14 15 14 14 13 13
7 7 8 9 8 9 10 8 8 8 8 11 10 10 10 10 10 13 11 11 9 8 10 10 11 13 12 11 10 9 11 9 10 9 9 9 10 10 11 13 14 14 13 13 14
7 7 7 8 8 10 8 8 8 9 10 10 10 9 11 10 11 10 11 10 9 10 11 11 12 12 9 10 9 9 9 11 11 10 10 10 11 13 12 13 14 14 13 13 14
7 7 7 9 8 8 8 8 8 9 10 9 9 10 9 10 11 9 9 10 10 9 10 9 12 12 12 13 9 10 8 10 10 10 11 12 12 13 13 14 15 15 14 15 15
7 7 7 7 8 7 7 9 9 9 14 10 11 12 10 9 11 11 9 8 9 9 10 12 14 15 14 13 10 8 10 12 13 13 14 14 13 15 16 17 17 16 16 16 16
8 7 7 6 6 7 8 9 8 12 12 14 14 13 11 12 11 12 11 10 11 9 10 10 10 15 16 15 14 13 14 13 13 14 14 13 14 16 17 16 17 18 17 16 15
8 8 8 6 6 6 8 9 10 10 11 10 12 13 14 12 10 12 11 10 8 11 10 10 13 14 15 16 15 15 14 15 13 14 14 15 17 17 17 15 16 16 16 16 16
7 8 8 7 6 7 8 9 11 11 10 11 10 12 10 10 10 10 11 12 9 10 11 10 9 13 15 15 15 14 15 14 13 13 14 16 16 15 16 16 15 16 17 17 16
7 9 6 7 7 7 7 9 11 11 10 10 10 9 10 9 8 9 10 11 11 10 10 10 9 11 13 14 15 14 14 15 15 14 13 13 15 16 15 15 15 15 15 14 15
8 8 6 7 7 7 7 10 10 10 10 9 9 9 9 10 9 9 10 12 11 10 10 9 9 8 11 13 15 14 14 14 13 13 13 14 14 16 14 14 14 15 15 15 15
7 7 6 6 6 7 8 10 10 10 10 10 9 10 10 9 8 10 10 11 11 10 8 9 9 8 10 13 13 13 15 14 14 14 13 13 15 16 15 13 13 14 14 14 14
5 6 7 6 7 6 8 9 10 9 9 10 9 10 9 8 9 8 10 11 11 10 10 8 8 9 9 10 11 11 12 12 13 11 13 14 15 18 14 13 12 12 14 14 14
4 5 4 6 5 4 6 6 6 7 8 8 8 8 8 6 8 8 10 10 11 11 9 8 7 8 9 10 11 11 11 12 12 12 12 14 14 16 15 14 13 12 12 14 15
5 4 1 3 3 4 5 5 6 7 8 6 6 7 6 6 6 6 7 7 6 9 7 6 6 7 7 9 10 10 11 11 12 12 13 13 14 16 16 14 14 13 13 13 13
3 3 4 5 4 5 6 5 6 7 6 8 7 6 5 6 7 7 7 7 7 7 6 6 5 6 7 9 8 8 11 11 12 13 13 12 14 15 13 11 9 9 11 10 10
Height
810 809 807 806 806 805 805 805 804 803 802 802 801 799 797 795 793 792 792 793 794 794 795 794 794 795 797 796 794 793 798 785 779 771 765 757 754 746 740 742 741 733 734 727 719
810 809 808 806 806 805 804 803 803 803 802 801 800 798 796 794 793 790 791 790 792 794 795 795 796 797 798 795 792 794 791 783 776 771 767 762 758 755 751 741 737 738 723 727 724
811 809 808 806 804 804 804 803 802 802 801 800 799 798 797 794 790 788 789 791 794 795 797 798 800 800 799 795 790 787 783 779 773 771 768 764 760 756 751 743 739 742 732 735 740
810 809 808 806 805 803 802 802 801 801 800 800 799 797 796 794 796 788 789 791 794 795 797 799 799 800 798 794 786 786 778 775 771 771 769 764 760 757 750 739 739 737 735 740 745
808 807 806 804 803 803 802 801 800 799 799 799 799 797 796 795 790 787 789 791 793 796 798 799 799 797 796 789 785 780 776 773 768 768 765 761 755 751 743 743 740 734 733 738 742
807 805 804 803 801 800 800 800 799 798 798 798 798 799 799 797 787 788 789 792 794 796 797 797 798 797 796 793 792 779 775 769 764 760 759 756 748 745 738 741 741 732 726 731 738
807 804 804 802 800 799 798 798 798 798 798 799 799 799 798 791 788 789 790 791 793 794 795 795 796 799 795 793 784 783 776 768 758 753 751 750 745 734 734 735 735 730 723 715 731
809 805 803 802 799 798 797 796 797 797 797 797 798 798 792 785 786 787 789 790 792 792 794 794 795 796 794 791 788 785 776 774 743 745 740 747 742 726 725 724 722 722 717 719 716
810 806 803 800 798 796 795 795 795 795 796 797 798 797 789 782 784 784 787 787 789 790 790 792 793 793 795 792 789 781 770 758 740 735 730 729 726 714 710 708 709 707 703 711 722
810 805 802 799 797 795 794 793 793 794 795 796 796 801 786 779 780 782 783 786 787 786 788 791 792 796 792 791 783 764 757 739 734 719 724 715 702 702 697 701 702 697 691 693 702
809 805 802 798 796 795 793 793 794 794 792 784 780 777 774 779 781 781 782 784 785 784 784 783 788 782 779 778 771 758 754 745 724 716 716 711 700 696 696 690 687 687 681 688 694
808 804 800 798 796 794 793 792 791 794 788 773 773 773 773 777 778 777 781 784 781 781 776 779 773 758 756 753 758 751 746 729 708 708 709 706 698 692 689 675 672 677 675 681 698
808 804 799 796 793 793 793 792 792 792 787 765 766 770 772 776 772 767 776 776 779 778 773 772 744 735 742 745 751 745 745 726 712 707 712 715 695 681 673 659 662 665 667 667 679
806 803 799 795 795 792 791 791 791 791 789 768 771 772 773 774 772 765 771 773 776 775 765 759 741 735 734 738 738 738 719 721 711 717 705 698 678 658 654 650 655 657 658 660 661
806 802 799 795 796 793 795 792 792 792 783 766 770 772 770 772 765 767 770 772 771 761 757 745 733 732 742 730 737 724 719 705 702 696 698 677 670 630 638 642 643 645 645 649 646
804 801 798 796 795 795 794 793 793 788 775 769 767 767 770 767 763 768 770 771 767 763 753 743 729 730 719 712 725 719 720 704 701 697 682 655 659 642 636 630 631 633 634 639 644
802 798 795 795 795 794 793 794 791 786 748 767 759 758 765 766 756 759 765 767 765 760 746 731 711 699 705 709 717 724 712 687 676 670 653 646 652 626 622 612 612 614 622 626 635
801 797 796 795 794 794 793 791 795 758 756 751 751 750 757 747 753 749 754 756 747 756 749 739 737 700 696 700 700 696 692 686 681 670 657 647 643 624 604 609 604 598 610 618 623
800 796 795 794 794 794 795 790 774 770 766 766 754 745 740 750 759 749 748 746 752 744 750 739 716 701 697 689 694 686 688 682 687 667 664 647 625 624 623 615 603 595 604 607 616
798 796 795 794 794 795 793 783 769 769 770 766 765 751 760 759 759 755 743 735 747 745 743 741 739 708 695 691 684 691 684 689 687 682 668 646 642 644 626 616 615 607 602 612 617
799 795 795 794 795 794 795 782 770 771 774 773 767 767 763 764 766 763 750 738 742 743 744 743 742 719 708 693 688 689 689 683 680 677 681 674 661 641 636 630 627 619 623 624 622
800 797 794 794 797 795 791 773 775 769 772 772 772 769 768 759 762 759 748 735 741 744 744 746 743 738 715 687 688 690 689 688 689 686 678 670 665 641 640 635 630 623 618 627 628
795 792 793 793 794 790 782 774 771 767 768 767 766 762 761 763 765 748 747 742 742 746 750 747 741 738 717 694 696 694 685 687 682 679 682 679 658 640 638 637 636 634 630 633 638
798 797 794 794 789 789 783 776 769 767 767 764 764 761 764 764 758 757 746 739 744 745 745 751 746 737 732 720 711 709 698 694 691 693 678 666 656 641 649 646 646 644 642 637 641
793 794 794 789 793 795 790 788 781 775 769 767 767 765 763 771 760 754 743 745 739 737 745 750 746 736 727 720 713 707 701 693 694 687 683 668 661 649 649 649 648 647 644 642 640
795 798 802 796 797 796 793 789 779 773 771 771 772 766 768 768 765 760 757 756 756 742 748 750 745 735 734 723 713 707 696 690 684 680 674 670 660 651 646 648 649 650 650 651 650
793 794 795 788 789 786 777 777 773 770 768 764 762 768 768 762 756 752 749 750 746 747 749 747 750 743 729 714 714 716 687 679 673 671 668 671 659 654 657 664 672 667 662 666 667
Wind_Speed
9 7 7 6 5 4 4 4 4 3 3 4 5 6 7 10 10 6 7 2 3 2 4 5 5 4 7 3 7 6 5 10 15 18 15 15 21 14 14 5 6 10 10 20 33
10 8 7 6 6 5 4 3 4 5 5 5 6 8 10 11 11 8 3 5 3 1 4 6 6 9 3 5 3 5 6 9 13 18 19 19 20 18 17 20 16 17 20 29 13
10 10 8 8 7 6 6 5 5 5 4 5 6 7 9 11 6 4 1 5 5 3 3 4 6 6 7 9 10 9 17 15 19 21 24 22 21 18 20 21 14 13 20 12 14
11 12 10 9 9 7 6 6 7 6 5 5 6 7 10 8 2 3 7 7 4 2 1 5 6 9 7 9 9 18 20 20 22 21 23 25 23 23 21 20 16 15 21 12 13
12 11 11 10 9 9 8 7 7 6 5 6 7 7 7 4 6 5 5 6 4 4 8 8 9 10 13 9 11 17 18 19 22 22 25 23 26 25 25 19 18 20 21 16 15
16 11 11 13 11 10 9 8 8 7 6 5 6 6 4 7 3 6 11 9 10 10 11 10 5 10 10 12 14 14 21 21 21 23 22 25 29 24 20 16 22 26 23 18 16
19 14 12 15 13 10 9 8 8 7 6 5 6 5 7 13 3 6 10 13 12 13 12 12 11 8 4 8 15 15 20 21 22 19 22 23 27 31 23 16 23 26 24 23 18
22 21 14 14 14 11 8 9 9 7 7 5 4 6 6 5 7 10 10 12 12 12 13 14 11 7 7 6 8 15 18 18 20 17 25 20 27 31 23 23 27 27 22 18 21
23 24 18 14 13 10 9 8 8 8 7 4 4 6 7 5 6 13 12 14 10 10 11 11 2 3 1 8 10 10 14 17 25 17 19 19 28 31 26 27 25 24 27 18 22
23 24 21 15 13 9 9 7 4 4 6 6 9 4 7 6 9 6 9 8 8 6 4 4 4 3 3 6 11 9 12 16 22 20 19 25 27 26 27 21 23 28 25 18 18
22 24 21 15 11 10 7 5 3 5 11 8 10 6 5 7 3 8 10 8 8 6 6 9 7 12 15 17 21 20 21 27 28 23 24 23 24 24 22 22 26 26 24 14 16
22 22 22 16 12 9 5 4 3 2 9 18 19 13 18 1 4 8 9 7 7 9 11 6 15 19 16 17 20 22 23 31 30 22 20 16 22 25 27 28 21 15 14 17 18
23 23 22 16 11 5 4 5 4 4 5 1 5 8 6 9 6 7 12 5 4 7 11 12 12 10 13 15 18 21 23 29 27 22 18 19 26 28 25 18 18 19 16 16 19
22 22 23 17 5 4 2 3 2 2 4 4 3 2 4 4 4 7 14 4 4 7 11 10 17 15 8 13 12 21 22 30 29 15 11 6 9 15 20 22 17 19 15 16 13
20 21 23 11 10 4 4 5 4 4 5 4 4 2 2 5 2 7 9 4 8 9 6 9 13 13 6 16 6 14 13 19 18 17 13 19 8 6 15 22 22 21 18 18 18
20 22 20 6 4 3 6 5 4 2 6 2 4 4 3 6 4 4 5 6 7 9 12 22 10 12 12 12 8 7 6 14 14 10 6 11 6 3 11 20 19 19 22 22 17
20 23 8 4 4 7 4 5 2 3 2 1 3 5 5 4 5 8 5 6 4 5 2 13 11 9 10 11 4 3 6 4 3 2 4 2 4 8 10 6 16 23 22 18 15
20 13 6 2 5 4 3 2 3 2 4 5 2 7 6 4 5 5 5 5 11 10 4 5 6 3 5 6 9 12 9 4 6 6 8 7 4 3 9 7 15 14 12 12 12
19 4 2 5 2 1 2 2 3 4 4 7 10 5 2 3 1 3 8 4 2 6 4 5 5 16 20 9 1 4 4 6 5 9 5 5 5 6 2 7 19 7 9 13 17
15 6 1 4 1 1 1 4 3 3 4 3 3 5 3 2 2 2 4 3 3 4 3 3 9 10 9 6 9 8 6 3 2 5 6 5 5 9 17 12 12 5 9 14 16
5 3 1 1 2 2 2 4 4 3 2 2 4 4 3 3 2 3 6 3 4 4 5 5 5 8 11 5 6 3 4 3 3 2 2 4 2 7 13 9 9 6 4 6 9
3 3 1 3 1 0 2 3 3 3 3 3 2 4 4 4 4 4 5 2 5 1 4 2 4 6 14 24 12 4 6 7 3 4 4 3 4 5 6 6 8 2 7 3 9
2 2 1 2 2 3 5 4 5 4 5 4 4 6 3 3 5 6 4 2 1 1 3 4 2 7 9 5 6 4 10 14 9 5 6 3 3 2 8 10 8 9 3 10 10
2 2 1 2 2 1 4 6 4 5 4 4 4 2 2 4 6 5 7 2 1 5 2 2 4 8 10 13 17 17 18 16 11 5 5 8 9 3 8 9 10 9 6 3 7
1 4 1 3 3 3 2 5 4 5 4 2 3 7 4 4 4 6 8 8 7 7 4 3 5 9 13 17 19 20 19 18 15 15 9 8 13 12 5 5 5 5 8 7 2
1 1 0 2 1 1 4 5 4 6 2 5 5 4 3 6 7 13 14 6 8 2 4 3 5 6 12 16 19 22 19 20 20 20 18 17 22 11 6 4 6 6 7 6 6
1 2 2 4 3 4 5 6 5 3 6 11 9 4 9 14 6 8 7 11 14 8 5 4 2 2 11 9 10 9 8 10 12 14 15 15 14 10 4 10 11 11 11 10 9
Wind_Direction
354 351 347 338 335 327 323 321 321 317 329 336 332 339 335 338 347 297 279 101 123 45 21 3 352 349 329 282 287 299 259 265 271 278 294 295 292 294 294 273 303 283 296 305 160
351 344 336 333 323 315 307 303 315 316 318 327 336 336 326 333 315 281 223 225 174 45 29 7 340 349 302 271 236 206 247 254 271 281 288 291 293 302 290 279 267 289 291 0 169
346 343 332 326 316 308 304 303 299 301 307 320 326 325 320 345 287 77 68 160 143 106 29 347 310 291 272 267 244 234 250 270 271 283 287 292 291 291 278 267 264 271 283 353 334
340 339 334 324 315 305 293 289 294 298 303 315 324 332 328 336 202 116 120 135 143 111 354 287 263 256 258 262 261 261 259 264 274 277 282 282 291 282 281 274 267 267 281 301 291
343 329 333 329 315 306 294 285 284 285 296 316 330 333 340 288 269 201 141 150 165 189 230 259 277 279 265 272 286 264 266 271 277 276 274 274 270 268 269 284 290 274 270 271 278
353 332 321 334 320 309 299 287 283 279 286 302 325 320 299 276 113 146 164 188 208 214 243 251 266 302 306 276 270 280 284 279 278 275 282 266 263 265 256 260 272 268 261 260 267
358 349 330 332 328 314 301 291 279 275 282 289 297 277 269 255 174 173 191 211 224 233 250 257 258 241 309 286 262 290 278 271 261 263 261 267 272 257 255 249 254 261 262 263 244
4 0 342 331 331 321 305 290 275 266 267 274 277 257 253 248 225 206 208 230 237 244 252 267 269 295 266 256 272 273 268 268 270 252 255 246 256 253 250 243 244 253 253 240 261
353 352 343 332 331 321 308 294 281 268 246 248 237 229 264 187 212 219 219 234 245 257 245 249 235 264 23 254 269 218 265 257 280 261 258 243 258 257 241 237 243 243 247 222 237
348 348 343 336 331 324 320 303 268 237 226 236 244 284 233 232 166 189 202 228 237 245 206 212 207 244 230 212 250 261 252 270 268 283 284 274 256 251 247 247 244 245 249 222 234
346 350 347 342 336 332 333 288 206 191 230 212 191 221 148 111 186 213 185 208 214 222 233 186 219 236 249 236 246 266 272 272 269 271 261 264 272 272 272 243 241 256 231 204 227
344 347 350 340 332 328 324 277 50 326 289 232 242 242 266 246 268 199 163 205 200 226 229 243 247 251 246 246 249 258 268 270 273 268 266 284 268 275 268 242 231 233 205 206 208
340 342 344 340 330 330 285 333 306 306 269 265 207 240 238 172 237 198 178 199 245 253 240 238 248 291 291 249 253 251 252 263 263 289 280 283 276 262 255 236 225 228 215 210 208
337 338 341 339 330 335 295 330 314 297 284 174 200 160 152 234 255 193 194 191 216 259 231 244 248 256 251 254 248 271 248 256 267 277 268 174 296 242 222 230 212 214 207 217 200
335 338 338 339 309 318 352 326 300 248 324 143 135 111 121 215 2 184 190 174 244 244 271 251 281 286 245 242 185 256 280 276 262 268 279 271 254 271 183 215 210 213 209 215 211
334 334 336 1 291 324 316 303 271 247 255 136 139 187 204 202 227 119 196 230 276 276 248 253 253 274 251 269 188 272 291 266 259 270 245 274 219 166 178 217 217 220 216 205 197
332 332 332 313 334 321 319 263 247 223 119 279 220 177 193 233 218 184 193 207 247 278 318 314 263 224 210 263 153 178 286 290 292 255 301 283 246 274 210 195 221 220 212 206 190
331 332 336 325 296 319 271 235 233 206 7 18 241 251 224 153 214 222 264 243 230 211 292 290 321 156 164 240 291 283 255 338 315 328 299 343 262 349 337 339 294 268 172 184 166
334 320 245 299 2 29 272 221 276 17 352 336 300 228 272 97 245 220 221 240 141 181 229 310 254 330 311 289 245 330 325 285 281 271 283 279 306 340 77 343 323 248 181 172 159
333 302 106 330 110 256 237 263 304 17 334 322 290 37 332 11 318 343 277 93 174 221 201 309 296 259 294 296 244 218 323 326 244 326 315 324 13 330 336 339 327 111 162 148 156
329 290 23 86 102 242 244 261 315 100 346 297 315 302 305 285 184 278 277 216 153 193 218 269 237 302 316 248 291 208 268 242 305 272 299 326 345 331 321 325 328 109 102 140 140
299 280 171 155 256 200 244 228 341 261 170 261 257 249 233 290 247 247 254 267 101 4 268 84 300 283 272 270 287 313 297 296 272 335 280 212 287 345 329 355 13 339 141 171 147
225 267 123 153 212 217 248 255 217 231 223 197 252 209 342 267 299 289 263 63 39 5 327 336 277 314 311 47 10 341 341 351 310 276 259 275 264 113 5 26 17 21 106 148 142
116 314 152 228 16 263 317 277 252 194 258 243 265 291 244 254 228 264 284 304 175 262 172 109 249 246 270 287 305 298 298 299 302 283 298 278 304 2 37 35 18 18 23 147 150
129 225 275 219 250 238 58 320 286 287 231 188 268 228 227 255 288 259 296 338 302 280 212 234 257 263 269 285 290 289 286 288 272 271 276 292 301 318 38 67 75 63 24 40 59
287 171 17 279 115 219 199 227 249 273 214 254 237 282 290 243 218 289 291 289 259 218 167 233 269 288 279 279 271 276 279 266 259 260 263 272 278 291 327 86 49 42 63 38 7
173 119 124 188 189 202 203 219 235 268 247 258 275 301 269 266 282 292 278 266 256 243 218 223 248 277 282 278 327 296 269 275 263 259 250 250 268 283 10 50 31 24 26 39 19